Location: Brienzwiler
(46.7508°N, 8.1014°E)
Time: 00:57:53
(UTC+00:00)

NOSS 0 Rocket - Pass Details

Date: 05 July 2020
Orbit: 934 x 955 km, 70.0° (Epoch: 11 August)

Event Time Altitude Azimuth Distance (km) Brightness Sun altitude
Exits shadow 22:07:30 15° 208° (SSW) 2,293 5.6 -18.0°
Maximum altitude 22:12:42 88° 296° (WNW) 944 3.9 -18.3°
Drops below altitude 10° 22:18:54 10° 28° (NNE) 2,665 6.9 -18.6°
Sets 22:21:26 0° 29° (NNE) 3,616 7.6 -18.8°
